Year,Month,Day,Hour,Minute,Value (Times are PST for barometer in hPa)
2016,08,20,01,30,949.58
2016,08,20,01,31,949.58
2016,08,20,01,32,949.58
2016,08,20,01,33,949.58
2016,08,20,01,34,950.65
2016,08,20,01,35,960.24
2016,08,20,01,36,960.24
2016,08,20,01,37,960.24
2016,08,20,01,38,960.24
2016,08,20,01,39,960.24
2016,08,20,01,40,960.24
2016,08,20,01,41,960.24
2016,08,20,01,42,960.24
2016,08,20,01,43,960.24
2016,08,20,01,44,960.24
2016,08,20,01,45,960.24
2016,08,20,01,46,960.24
2016,08,20,01,47,960.24
2016,08,20,01,48,960.24
2016,08,20,01,49,960.24
2016,08,20,01,50,960.24
2016,08,20,01,51,960.24
2016,08,20,01,52,960.24
2016,08,20,01,53,960.24
2016,08,20,01,54,960.24
2016,08,20,01,55,960.24
2016,08,20,01,56,960.24
2016,08,20,01,57,960.24
2016,08,20,01,58,960.24
2016,08,20,01,59,960.24
2016,08,20,02,00,960.24
2016,08,20,02,01,960.24
2016,08,20,02,02,960.24
2016,08,20,02,03,960.24
2016,08,20,02,04,960.24
2016,08,20,02,05,960.24
2016,08,20,02,06,960.24
2016,08,20,02,07,960.24
2016,08,20,02,08,960.24
2016,08,20,02,09,960.24
2016,08,20,02,10,960.24
2016,08,20,02,11,960.24
2016,08,20,02,12,960.24
2016,08,20,02,13,960.24
2016,08,20,02,14,960.24
2016,08,20,02,15,960.24
2016,08,20,02,16,960.24
2016,08,20,02,17,960.24
2016,08,20,02,18,960.24
2016,08,20,02,19,960.24
2016,08,20,02,20,960.24
2016,08,20,02,21,960.24
2016,08,20,02,22,960.24
2016,08,20,02,23,960.24
2016,08,20,02,24,960.24
2016,08,20,02,25,960.24
2016,08,20,02,26,960.24
2016,08,20,02,27,960.24
2016,08,20,02,28,960.24
2016,08,20,02,29,960.24
2016,08,20,02,30,960.24
2016,08,20,02,31,960.24
2016,08,20,02,32,960.24
2016,08,20,02,33,960.24
2016,08,20,02,34,960.24
2016,08,20,02,35,960.24
2016,08,20,02,36,960.24
2016,08,20,02,37,960.24
2016,08,20,02,38,960.24
2016,08,20,02,39,960.24
2016,08,20,02,40,960.24
2016,08,20,02,41,960.24
2016,08,20,02,42,960.24
2016,08,20,02,43,960.24
2016,08,20,02,44,960.24
2016,08,20,02,45,960.24
2016,08,20,02,46,960.24
2016,08,20,02,47,960.24
2016,08,20,02,48,960.24
2016,08,20,02,49,960.24
2016,08,20,02,50,960.24
2016,08,20,02,51,958.84
2016,08,20,02,52,933.56
2016,08,20,02,53,933.56
2016,08,20,02,54,933.56
2016,08,20,02,55,933.56
2016,08,20,02,56,933.56
2016,08,20,02,57,933.56
2016,08,20,02,58,933.56
2016,08,20,02,59,933.56
2016,08,20,03,00,933.56
2016,08,20,03,01,933.51
2016,08,20,03,02,932.51
2016,08,20,03,03,932.51
2016,08,20,03,04,932.51
2016,08,20,03,05,932.51
2016,08,20,03,06,932.51
2016,08,20,03,07,932.51
2016,08,20,03,08,932.51
2016,08,20,03,09,932.51
2016,08,20,03,10,932.51
2016,08,20,03,11,932.51
2016,08,20,03,12,932.51
2016,08,20,03,13,932.51
2016,08,20,03,14,932.51
2016,08,20,03,15,932.51
2016,08,20,03,16,932.51
2016,08,20,03,17,932.51
2016,08,20,03,18,932.51
2016,08,20,03,19,932.51
2016,08,20,03,20,932.51
2016,08,20,03,21,932.51
2016,08,20,03,22,932.51
2016,08,20,03,23,932.51
2016,08,20,03,24,932.51
2016,08,20,03,25,932.51
2016,08,20,03,26,932.51
2016,08,20,03,27,932.51
2016,08,20,03,28,932.51
2016,08,20,03,29,932.51
2016,08,20,03,30,932.51
2016,08,20,03,31,932.51
2016,08,20,03,32,932.51
2016,08,20,03,33,932.51
2016,08,20,03,34,932.51
2016,08,20,03,35,932.51
2016,08,20,03,36,932.51
2016,08,20,03,37,932.51
2016,08,20,03,38,932.51
2016,08,20,03,39,932.51
2016,08,20,03,40,932.51
2016,08,20,03,41,932.51
2016,08,20,03,42,932.51
2016,08,20,03,43,932.51
2016,08,20,03,44,932.51
2016,08,20,03,45,932.51
2016,08,20,03,46,932.51
2016,08,20,03,47,932.51
2016,08,20,03,48,932.51
2016,08,20,03,49,932.51
2016,08,20,03,50,932.51
2016,08,20,03,51,932.51
2016,08,20,03,52,932.51
2016,08,20,03,53,932.51
2016,08,20,03,54,932.51
2016,08,20,03,55,932.51
2016,08,20,03,56,932.51
2016,08,20,03,57,933.74
2016,08,20,03,58,955.94
2016,08,20,03,59,955.94
2016,08,20,04,00,955.94
2016,08,20,04,01,955.94
2016,08,20,04,02,955.94
2016,08,20,04,03,955.94
2016,08,20,04,04,955.94
2016,08,20,04,05,955.94
2016,08,20,04,06,955.94
2016,08,20,04,07,955.94
2016,08,20,04,08,955.94
2016,08,20,04,09,955.94
2016,08,20,04,10,955.94
2016,08,20,04,11,955.94
2016,08,20,04,12,955.94
2016,08,20,04,13,955.94
2016,08,20,04,14,955.94
2016,08,20,04,15,955.94
2016,08,20,04,16,955.94
2016,08,20,04,17,955.94
2016,08,20,04,18,955.94
2016,08,20,04,19,955.94
2016,08,20,04,20,955.94
2016,08,20,04,21,955.94
2016,08,20,04,22,955.94
2016,08,20,04,23,956.83
2016,08,20,04,24,974.60
2016,08,20,04,25,974.60
2016,08,20,04,26,974.60
2016,08,20,04,27,974.60
2016,08,20,04,28,974.60
2016,08,20,04,29,974.60
2016,08,20,04,30,974.60
2016,08,20,04,31,974.60
2016,08,20,04,32,974.60
2016,08,20,04,33,974.60
2016,08,20,04,34,974.60
2016,08,20,04,35,974.60
2016,08,20,04,36,974.60
2016,08,20,04,37,974.60
2016,08,20,04,38,974.60
2016,08,20,04,39,974.60
2016,08,20,04,40,974.60
2016,08,20,04,41,974.60
2016,08,20,04,42,974.60
2016,08,20,04,43,974.60
2016,08,20,04,44,974.60
2016,08,20,04,45,973.97
2016,08,20,04,46,968.30
2016,08,20,04,47,968.30
2016,08,20,04,48,968.30
2016,08,20,04,49,968.30
2016,08,20,04,50,968.30
2016,08,20,04,51,968.30
2016,08,20,04,52,968.30
2016,08,20,04,53,968.30
2016,08,20,04,54,968.30
2016,08,20,04,55,968.30
2016,08,20,04,56,968.30
2016,08,20,04,57,968.30
2016,08,20,04,58,968.30
2016,08,20,04,59,968.30
2016,08,20,05,00,968.30
2016,08,20,05,01,968.30
2016,08,20,05,02,968.30
2016,08,20,05,03,968.30
2016,08,20,05,04,968.49
2016,08,20,05,05,971.86
2016,08,20,05,06,971.86
2016,08,20,05,07,971.86
2016,08,20,05,08,971.86
2016,08,20,05,09,971.86
2016,08,20,05,10,971.86
2016,08,20,05,11,971.86
2016,08,20,05,12,971.86
2016,08,20,05,13,971.86
2016,08,20,05,14,971.86
2016,08,20,05,15,971.86
2016,08,20,05,16,971.86
2016,08,20,05,17,971.86
2016,08,20,05,18,972.58
2016,08,20,05,19,985.54
2016,08,20,05,20,985.54
2016,08,20,05,21,985.54
2016,08,20,05,22,985.54
2016,08,20,05,23,985.54
2016,08,20,05,24,985.54
2016,08,20,05,25,985.54
2016,08,20,05,26,985.54
2016,08,20,05,27,985.54
2016,08,20,05,28,985.54
2016,08,20,05,29,985.47
2016,08,20,05,30,984.29
2016,08,20,05,31,984.29
2016,08,20,05,32,984.29
2016,08,20,05,33,984.29
2016,08,20,05,34,984.29
2016,08,20,05,35,984.64
2016,08,20,05,36,990.96
2016,08,20,05,37,991.40
2016,08,20,05,38,995.33
2016,08,20,05,39,995.33
2016,08,20,05,40,995.33
2016,08,20,05,41,995.47
2016,08,20,05,42,996.75
2016,08,20,05,43,996.75
2016,08,20,05,44,996.75
2016,08,20,05,45,996.75
2016,08,20,05,46,996.75
2016,08,20,05,47,996.75
2016,08,20,05,48,996.75
2016,08,20,05,49,996.75
2016,08,20,05,50,996.75
2016,08,20,05,51,996.75
2016,08,20,05,52,996.75
2016,08,20,05,53,996.75
2016,08,20,05,54,996.75
2016,08,20,05,55,996.75
2016,08,20,05,56,996.75
2016,08,20,05,57,996.75
2016,08,20,05,58,996.75
2016,08,20,05,59,996.75
2016,08,20,06,00,996.54
2016,08,20,06,01,992.45
2016,08,20,06,02,992.45
2016,08,20,06,03,992.21
2016,08,20,06,04,990.05
2016,08,20,06,05,989.60
2016,08,20,06,06,989.60
2016,08,20,06,07,989.60
2016,08,20,06,08,989.60
2016,08,20,06,09,989.60
2016,08,20,06,10,989.60
2016,08,20,06,11,989.49
2016,08,20,06,12,988.52
2016,08,20,06,13,988.52
2016,08,20,06,14,988.52
2016,08,20,06,15,988.52
2016,08,20,06,16,988.52
2016,08,20,06,17,988.52
2016,08,20,06,18,988.52
2016,08,20,06,19,988.52
2016,08,20,06,20,988.52
2016,08,20,06,21,988.52
2016,08,20,06,22,988.52
2016,08,20,06,23,988.52
2016,08,20,06,24,988.52
2016,08,20,06,25,988.52
2016,08,20,06,26,988.52
2016,08,20,06,27,988.52
2016,08,20,06,28,988.52
2016,08,20,06,29,988.52
2016,08,20,06,30,988.76
2016,08,20,06,31,990.89
2016,08,20,06,32,990.89
2016,08,20,06,33,990.89
2016,08,20,06,34,990.89
2016,08,20,06,35,990.89
2016,08,20,06,36,990.89
2016,08,20,06,37,990.89
2016,08,20,06,38,990.89
2016,08,20,06,39,990.89
2016,08,20,06,40,990.89
2016,08,20,06,41,990.89
2016,08,20,06,42,991.06
2016,08,20,06,43,994.31
2016,08,20,06,44,993.91
2016,08,20,06,45,993.91
2016,08,20,06,46,993.91
2016,08,20,06,47,993.91
2016,08,20,06,48,993.91
2016,08,20,06,49,993.91
2016,08,20,06,50,993.91
2016,08,20,06,51,993.91
2016,08,20,06,52,993.91
2016,08,20,06,53,993.91
2016,08,20,06,54,994.47
2016,08,20,06,55,999.56
2016,08,20,06,56,999.56
2016,08,20,06,57,999.56
2016,08,20,06,58,999.56
2016,08,20,06,59,999.56
2016,08,20,07,00,999.56
2016,08,20,07,01,999.56
2016,08,20,07,02,999.56
2016,08,20,07,03,999.73
2016,08,20,07,04,1002.85
2016,08,20,07,05,1002.85
2016,08,20,07,06,1002.57
2016,08,20,07,07,997.22
2016,08,20,07,08,997.22
2016,08,20,07,09,997.22
2016,08,20,07,10,997.22
2016,08,20,07,11,997.22
2016,08,20,07,12,997.22
2016,08,20,07,13,997.22
2016,08,20,07,14,997.22
2016,08,20,07,15,997.22
2016,08,20,07,16,997.22
2016,08,20,07,17,997.22
2016,08,20,07,18,996.93
2016,08,20,07,19,991.67
2016,08,20,07,20,991.67
2016,08,20,07,21,991.67
2016,08,20,07,22,991.67
2016,08,20,07,23,991.67
2016,08,20,07,24,991.67
2016,08,20,07,25,991.67
2016,08,20,07,26,991.67
2016,08,20,07,27,991.67
2016,08,20,07,28,991.67
2016,08,20,07,29,991.67
2016,08,20,07,30,992.57
2016,08,20,07,31,1008.77
2016,08,20,07,32,1008.74
2016,08,20,07,33,1008.88
2016,08,20,07,34,1011.58
2016,08,20,07,35,1011.58
2016,08,20,07,36,1011.55
2016,08,20,07,37,1011.55
2016,08,20,07,38,1011.55
2016,08,20,07,39,1011.55
2016,08,20,07,40,1011.55
2016,08,20,07,41,1011.55
2016,08,20,07,42,1011.55
2016,08,20,07,43,1011.55
2016,08,20,07,44,1011.55
2016,08,20,07,45,1011.55
2016,08,20,07,46,1011.55
2016,08,20,07,47,1011.55
2016,08,20,07,48,1011.55
2016,08,20,07,49,1011.55
2016,08,20,07,50,1011.55
2016,08,20,07,51,1011.55
2016,08,20,07,52,1011.55
2016,08,20,07,53,1011.55
2016,08,20,07,54,1011.55
2016,08,20,07,55,1011.55
2016,08,20,07,56,1011.55
2016,08,20,07,57,1011.55
2016,08,20,07,58,1011.55
2016,08,20,07,59,1011.55
2016,08,20,08,00,1011.55
2016,08,20,08,01,988.96
2016,08,20,08,02,988.93
2016,08,20,08,03,988.93
2016,08,20,08,04,988.93
2016,08,20,08,05,988.93
2016,08,20,08,06,989.00
2016,08,20,08,07,989.00
2016,08,20,08,08,989.00
2016,08,20,08,09,989.00
2016,08,20,08,10,988.98
2016,08,20,08,11,988.49
2016,08,20,08,12,988.49
2016,08,20,08,13,988.71
2016,08,20,08,14,992.79
2016,08,20,08,15,992.79
2016,08,20,08,16,992.79
2016,08,20,08,17,992.79
2016,08,20,08,18,992.79
2016,08,20,08,19,992.46
2016,08,20,08,20,986.08
2016,08,20,08,21,986.08
2016,08,20,08,22,986.08
2016,08,20,08,23,986.08
2016,08,20,08,24,986.08
2016,08,20,08,25,986.08
2016,08,20,08,26,986.08
2016,08,20,08,27,986.08
2016,08,20,08,28,985.94
2016,08,20,08,29,983.24
2016,08,20,08,30,983.24
2016,08,20,08,31,983.24
2016,08,20,08,32,983.27
2016,08,20,08,33,983.27
2016,08,20,08,34,983.27
2016,08,20,08,35,983.27
2016,08,20,08,36,983.27
2016,08,20,08,37,983.27
2016,08,20,08,38,983.77
2016,08,20,08,39,993.33
2016,08,20,08,40,993.33
2016,08,20,08,41,993.33
2016,08,20,08,42,993.78
2016,08,20,08,43,1001.83
2016,08,20,08,44,1001.83
2016,08,20,08,45,1001.83
2016,08,20,08,46,1001.83
2016,08,20,08,47,1001.83
2016,08,20,08,48,1001.73
2016,08,20,08,49,999.80
2016,08,20,08,50,999.80
2016,08,20,08,51,999.80
2016,08,20,08,52,999.80
2016,08,20,08,53,999.80
2016,08,20,08,54,999.80
2016,08,20,08,55,999.80
2016,08,20,08,56,999.80
2016,08,20,08,57,999.80
2016,08,20,08,58,999.80
2016,08,20,08,59,999.80
2016,08,20,09,00,999.80
2016,08,20,09,01,999.80
2016,08,20,09,02,999.80
2016,08,20,09,03,999.80
2016,08,20,09,04,999.80
2016,08,20,09,05,999.80
2016,08,20,09,06,999.80
2016,08,20,09,07,999.80
2016,08,20,09,08,999.80
2016,08,20,09,09,999.80
2016,08,20,09,10,999.80
2016,08,20,09,11,999.80
2016,08,20,09,12,999.80
2016,08,20,09,13,999.80
2016,08,20,09,14,999.80
2016,08,20,09,15,999.67
2016,08,20,09,16,997.33
2016,08,20,09,17,997.33
2016,08,20,09,18,997.33
2016,08,20,09,19,997.33
2016,08,20,09,20,997.33
2016,08,20,09,21,997.33
2016,08,20,09,22,998.01
2016,08,20,09,23,1011.58
2016,08,20,09,24,1011.62
2016,08,20,09,25,1011.58
2016,08,20,09,26,1011.65
2016,08,20,09,27,1011.62
2016,08,20,09,28,1011.11
2016,08,20,09,29,1011.18
2016,08,20,09,30,1011.18
2016,08,20,09,31,1011.16
2016,08,20,09,32,1010.70
2016,08,20,09,33,1010.75
2016,08,20,09,34,1011.65
2016,08,20,09,35,1011.65
2016,08,20,09,36,1011.62
2016,08,20,09,37,1011.62
2016,08,20,09,38,1011.58
2016,08,20,09,39,1011.62
2016,08,20,09,40,1011.62
2016,08,20,09,41,1011.58
2016,08,20,09,42,1011.58
2016,08,20,09,43,1011.58
2016,08,20,09,44,1011.58
2016,08,20,09,45,1011.62
2016,08,20,09,46,1011.55
2016,08,20,09,47,1011.58
2016,08,20,09,48,1011.58
2016,08,20,09,49,1011.55
2016,08,20,09,50,1011.58
2016,08,20,09,51,1011.58
2016,08,20,09,52,1011.58
2016,08,20,09,53,1011.58
2016,08,20,09,54,1011.58
2016,08,20,09,55,1011.65
2016,08,20,09,56,1011.51
2016,08,20,09,57,1011.55
2016,08,20,09,58,1011.62
2016,08,20,09,59,1011.62
2016,08,20,10,00,1011.65
2016,08,20,10,01,1011.68
2016,08,20,10,02,1011.65
2016,08,20,10,03,1011.68
2016,08,20,10,04,1011.68
2016,08,20,10,05,1011.68
2016,08,20,10,06,1011.69
2016,08,20,10,07,1011.79
2016,08,20,10,08,1011.75
2016,08,20,10,09,1011.72
2016,08,20,10,10,1011.72
2016,08,20,10,11,1011.72
2016,08,20,10,12,1011.72
2016,08,20,10,13,1011.75
2016,08,20,10,14,1011.75
2016,08,20,10,15,1011.75
2016,08,20,10,16,1011.75
2016,08,20,10,17,1011.75
2016,08,20,10,18,1011.72
2016,08,20,10,19,1011.72
2016,08,20,10,20,1011.72
2016,08,20,10,21,1011.72
2016,08,20,10,22,1011.72
2016,08,20,10,23,1011.72
2016,08,20,10,24,1011.72
2016,08,20,10,25,1011.70
2016,08,20,10,26,1011.35
2016,08,20,10,27,1011.43
2016,08,20,10,28,1011.77
2016,08,20,10,29,1011.31
2016,08,20,10,30,1011.37
2016,08,20,10,31,1011.79
2016,08,20,10,32,1011.82
2016,08,20,10,33,1011.82
2016,08,20,10,34,1011.79
2016,08,20,10,35,1011.30
2016,08,20,10,36,1011.72
2016,08,20,10,37,1011.24
2016,08,20,10,38,1011.27
2016,08,20,10,39,1011.70
2016,08,20,10,40,1011.25
2016,08,20,10,41,1010.77
2016,08,20,10,42,1011.24
2016,08,20,10,43,1010.80
2016,08,20,10,44,1011.22
2016,08,20,10,45,1011.72
2016,08,20,10,46,1011.66
2016,08,20,10,47,1011.75
2016,08,20,10,48,1011.72
2016,08,20,10,49,1011.65
2016,08,20,10,50,1011.65
2016,08,20,10,51,1011.62
2016,08,20,10,52,1011.68
2016,08,20,10,53,1011.65
2016,08,20,10,54,1011.65
2016,08,20,10,55,1011.65
2016,08,20,10,56,1011.68
2016,08,20,10,57,1011.68
2016,08,20,10,58,1011.65
2016,08,20,10,59,1011.68
2016,08,20,11,00,1011.65
2016,08,20,11,01,1011.68
2016,08,20,11,02,1011.68
2016,08,20,11,03,1011.66
2016,08,20,11,04,1011.75
2016,08,20,11,05,1011.68
2016,08,20,11,06,1011.68
2016,08,20,11,07,1011.68
2016,08,20,11,08,1011.65
2016,08,20,11,09,1011.58
2016,08,20,11,10,1011.62
2016,08,20,11,11,1011.58
2016,08,20,11,12,1011.58
2016,08,20,11,13,1011.58
2016,08,20,11,14,1011.58
2016,08,20,11,15,1011.58
2016,08,20,11,16,1011.58
2016,08,20,11,17,1011.58
2016,08,20,11,18,1011.58
2016,08,20,11,19,1011.58
2016,08,20,11,20,1002.17
2016,08,20,11,21,1002.17
2016,08,20,11,22,993.23
2016,08,20,11,23,993.23
2016,08,20,11,24,993.23
2016,08,20,11,25,993.23
2016,08,20,11,26,993.23
2016,08,20,11,27,993.23
2016,08,20,11,28,993.23
2016,08,20,11,29,993.23
2016,08,20,11,30,993.23
2016,08,20,11,31,993.23
2016,08,20,11,32,991.70
2016,08,20,11,33,991.70
2016,08,20,11,34,991.70
2016,08,20,11,35,991.70
2016,08,20,11,36,991.67
2016,08,20,11,37,991.67
2016,08,20,11,38,991.67
2016,08,20,11,39,991.67
2016,08,20,11,40,991.67
2016,08,20,11,41,983.20
2016,08,20,11,42,983.20
2016,08,20,11,43,983.20
2016,08,20,11,44,983.20
2016,08,20,11,45,983.20
2016,08,20,11,46,983.20
2016,08,20,11,47,983.20
2016,08,20,11,48,983.20
2016,08,20,11,49,997.46
2016,08,20,11,50,997.46
2016,08,20,11,51,997.46
2016,08,20,11,52,997.46
2016,08,20,11,53,997.46
2016,08,20,11,54,997.46
2016,08,20,11,55,997.46
2016,08,20,11,56,997.46
2016,08,20,11,57,997.46
2016,08,20,11,58,997.46
2016,08,20,11,59,997.46
2016,08,20,12,00,997.46
2016,08,20,12,01,997.46
2016,08,20,12,02,997.46
2016,08,20,12,03,997.46
2016,08,20,12,04,997.46
2016,08,20,12,05,997.46
2016,08,20,12,06,997.46
2016,08,20,12,07,997.46
2016,08,20,12,08,997.46
2016,08,20,12,09,997.46
2016,08,20,12,10,997.46
2016,08,20,12,11,997.46
2016,08,20,12,12,982.90
2016,08,20,12,13,983.27
2016,08,20,12,14,983.27
2016,08,20,12,15,986.05
2016,08,20,12,16,986.05
2016,08,20,12,17,986.05
2016,08,20,12,18,986.05
2016,08,20,12,19,986.05
2016,08,20,12,20,986.05
2016,08,20,12,21,986.05
2016,08,20,12,22,986.05
2016,08,20,12,23,986.05
2016,08,20,12,24,986.05
2016,08,20,12,25,986.05
2016,08,20,12,26,986.05
2016,08,20,12,27,986.05
2016,08,20,12,28,1010.94
2016,08,20,12,29,1010.94
2016,08,20,12,30,1011.41
2016,08,20,12,31,1011.32
2016,08,20,12,32,1011.28
2016,08,20,12,33,1011.35
2016,08,20,12,34,1011.35
2016,08,20,12,35,1011.35
2016,08,20,12,36,1011.35
2016,08,20,12,37,1011.35
2016,08,20,12,38,1011.35
2016,08,20,12,39,1011.35
2016,08,20,12,40,1011.35
2016,08,20,12,41,1011.35
2016,08,20,12,42,1010.67
2016,08,20,12,43,997.16
2016,08,20,12,44,997.16
2016,08,20,12,45,997.16
2016,08,20,12,46,997.16
2016,08,20,12,47,997.16
2016,08,20,12,48,997.16
2016,08,20,12,49,997.16
2016,08,20,12,50,997.16
2016,08,20,12,51,997.16
2016,08,20,12,52,1005.59
2016,08,20,12,53,1005.59
2016,08,20,12,54,1005.59
2016,08,20,12,55,1005.59
2016,08,20,12,56,1005.59
2016,08,20,12,57,1005.59
2016,08,20,12,58,1005.59
2016,08,20,12,59,1005.59
2016,08,20,13,00,1005.59
2016,08,20,13,01,1005.59
2016,08,20,13,02,1005.59
2016,08,20,13,03,1008.37
2016,08,20,13,04,1008.37
2016,08,20,13,05,1008.37
2016,08,20,13,06,1008.37
2016,08,20,13,07,1008.37
2016,08,20,13,08,1008.37
2016,08,20,13,09,1008.37
2016,08,20,13,10,1008.37
2016,08,20,13,11,1008.37
2016,08,20,13,12,1004.50
2016,08,20,13,13,1004.50
2016,08,20,13,14,1004.50
2016,08,20,13,15,1002.61
2016,08,20,13,16,1002.61
2016,08,20,13,17,996.89
2016,08,20,13,18,996.89
2016,08,20,13,19,996.89
2016,08,20,13,20,996.89
2016,08,20,13,21,996.89
2016,08,20,13,22,999.73
2016,08,20,13,23,999.73
2016,08,20,13,24,994.14
2016,08,20,13,25,993.60
2016,08,20,13,26,993.60
2016,08,20,13,27,993.60
2016,08,20,13,28,993.60
2016,08,20,13,29,993.60
2016,08,20,13,30,993.60
2016,08,20,13,31,1008.16
2016,08,20,13,32,1008.30
2016,08,20,13,33,1010.94
2016,08,20,13,34,1010.94
2016,08,20,13,35,1008.09
2016,08,20,13,36,1008.09
2016,08,20,13,37,1008.09
2016,08,20,13,38,1008.09
2016,08,20,13,39,1008.09
2016,08,20,13,40,1008.09
2016,08,20,13,41,999.53
2016,08,20,13,42,999.53
2016,08,20,13,43,999.53
2016,08,20,13,44,999.53
2016,08,20,13,45,999.53
2016,08,20,13,46,999.53
2016,08,20,13,47,999.53
2016,08,20,13,48,991.09
2016,08,20,13,49,991.09
2016,08,20,13,50,991.09
2016,08,20,13,51,991.09
2016,08,20,13,52,991.09
2016,08,20,13,53,991.09
2016,08,20,13,54,991.09
2016,08,20,13,55,991.09
2016,08,20,13,56,991.09
2016,08,20,13,57,991.09
2016,08,20,13,58,991.09
2016,08,20,13,59,991.09
2016,08,20,14,00,991.09
2016,08,20,14,01,991.09
2016,08,20,14,02,991.09
2016,08,20,14,03,1007.55
2016,08,20,14,04,1007.52
2016,08,20,14,05,1007.52
2016,08,20,14,06,1009.31
2016,08,20,14,07,1009.31
2016,08,20,14,08,1009.31
2016,08,20,14,09,1009.31
2016,08,20,14,10,1009.31
2016,08,20,14,11,1009.31
2016,08,20,14,12,999.22
2016,08,20,14,13,999.22
2016,08,20,14,14,999.22
2016,08,20,14,15,999.22
2016,08,20,14,16,999.22
2016,08,20,14,17,999.22
2016,08,20,14,18,999.22
2016,08,20,14,19,999.22
2016,08,20,14,20,995.90
2016,08,20,14,21,995.90
2016,08,20,14,22,995.90
2016,08,20,14,23,995.90
2016,08,20,14,24,995.90
2016,08,20,14,25,999.09
2016,08,20,14,26,999.09
2016,08,20,14,27,999.09
2016,08,20,14,28,999.09
2016,08,20,14,29,999.09
2016,08,20,14,30,999.09
2016,08,20,14,31,999.09
2016,08,20,14,32,999.09
2016,08,20,14,33,999.09
2016,08,20,14,34,999.09
2016,08,20,14,35,999.09
2016,08,20,14,36,999.09
2016,08,20,14,37,996.11
2016,08,20,14,38,996.11
2016,08,20,14,39,996.11
2016,08,20,14,40,990.01
2016,08,20,14,41,990.01
2016,08,20,14,42,990.01
2016,08,20,14,43,990.01
2016,08,20,14,44,990.01
2016,08,20,14,45,990.01
2016,08,20,14,46,990.01
2016,08,20,14,47,990.01
2016,08,20,14,48,990.01
2016,08,20,14,49,990.01
2016,08,20,14,50,988.42
2016,08,20,14,51,988.42
2016,08,20,14,52,988.42
2016,08,20,14,53,988.42
2016,08,20,14,54,988.42
2016,08,20,14,55,983.69
2016,08,20,14,56,983.44
2016,08,20,14,57,983.44
2016,08,20,14,58,983.44
2016,08,20,14,59,983.44
2016,08,20,15,00,983.44
2016,08,20,15,01,983.44
2016,08,20,15,02,977.96
2016,08,20,15,03,977.96
2016,08,20,15,04,977.96
2016,08,20,15,05,977.96
2016,08,20,15,06,980.73
2016,08,20,15,07,980.73
2016,08,20,15,08,980.73
2016,08,20,15,09,980.73
2016,08,20,15,10,980.73
2016,08,20,15,11,980.73
2016,08,20,15,12,980.73
2016,08,20,15,13,987.61
2016,08,20,15,14,987.61
2016,08,20,15,15,987.61
2016,08,20,15,16,987.61
2016,08,20,15,17,987.61
2016,08,20,15,18,987.61
2016,08,20,15,19,987.61
2016,08,20,15,20,987.61
2016,08,20,15,21,987.61
2016,08,20,15,22,987.61
2016,08,20,15,23,987.61
2016,08,20,15,24,987.61
2016,08,20,15,25,987.61
2016,08,20,15,26,987.61
2016,08,20,15,27,987.61
2016,08,20,15,28,987.61
2016,08,20,15,29,987.61
2016,08,20,15,30,987.61
2016,08,20,15,31,987.61
2016,08,20,15,32,991.06
2016,08,20,15,33,991.06
2016,08,20,15,34,991.06
2016,08,20,15,35,991.06
2016,08,20,15,36,991.06
2016,08,20,15,37,991.06
2016,08,20,15,38,991.06
2016,08,20,15,39,992.55
2016,08,20,15,40,992.55
2016,08,20,15,41,992.55
2016,08,20,15,42,992.55
2016,08,20,15,43,992.55
2016,08,20,15,44,978.02
2016,08,20,15,45,978.02
2016,08,20,15,46,978.02
2016,08,20,15,47,978.02
2016,08,20,15,48,978.02
2016,08,20,15,49,978.02
2016,08,20,15,50,983.20
2016,08,20,15,51,982.85
2016,08,20,15,52,982.83
2016,08,20,15,53,984.66
2016,08,20,15,54,984.66
2016,08,20,15,55,984.66
2016,08,20,15,56,984.66
2016,08,20,15,57,984.66
2016,08,20,15,58,984.66
2016,08,20,15,59,984.66
2016,08,20,16,00,984.66
2016,08,20,16,01,984.66
2016,08,20,16,02,984.66
2016,08,20,16,03,984.66
2016,08,20,16,04,984.66
2016,08,20,16,05,984.66
2016,08,20,16,06,984.66
2016,08,20,16,07,984.66
2016,08,20,16,08,984.66
2016,08,20,16,09,909.21
2016,08,20,16,10,909.21
2016,08,20,16,11,909.21
2016,08,20,16,12,909.21
2016,08,20,16,13,909.21
2016,08,20,16,14,909.21
2016,08,20,16,15,909.21
2016,08,20,16,16,909.21
2016,08,20,16,17,909.21
2016,08,20,16,18,909.21
2016,08,20,16,19,909.21
2016,08,20,16,20,909.21
2016,08,20,16,21,909.21
2016,08,20,16,22,909.21
2016,08,20,16,23,937.59
2016,08,20,16,24,937.59
2016,08,20,16,25,937.59
2016,08,20,16,26,937.59
2016,08,20,16,27,937.59
2016,08,20,16,28,937.59
2016,08,20,16,29,937.59
2016,08,20,16,30,937.59
2016,08,20,16,31,937.59
2016,08,20,16,32,937.59
2016,08,20,16,33,981.79
2016,08,20,16,34,984.12
2016,08,20,16,35,983.24
2016,08,20,16,36,983.24
2016,08,20,16,37,983.24
2016,08,20,16,38,983.24
2016,08,20,16,39,983.24
2016,08,20,16,40,983.24
2016,08,20,16,41,983.24
2016,08,20,16,42,983.24
2016,08,20,16,43,983.24
2016,08,20,16,44,983.24
2016,08,20,16,45,983.24
2016,08,20,16,46,983.24
2016,08,20,16,47,983.24
2016,08,20,16,48,983.24
2016,08,20,16,49,983.24
2016,08,20,16,50,983.24
2016,08,20,16,51,983.24
2016,08,20,16,52,983.24
2016,08,20,16,53,983.24
2016,08,20,16,54,983.24
2016,08,20,16,55,983.24
2016,08,20,16,56,983.24
2016,08,20,16,57,924.08
2016,08,20,16,58,924.01
2016,08,20,16,59,924.45
2016,08,20,17,00,924.45
2016,08,20,17,01,924.45
2016,08,20,17,02,924.45
2016,08,20,17,03,924.45
2016,08,20,17,04,924.45
2016,08,20,17,05,924.45
2016,08,20,17,06,924.45
2016,08,20,17,07,924.45
2016,08,20,17,08,924.45
2016,08,20,17,09,924.45
2016,08,20,17,10,924.45
2016,08,20,17,11,924.45
2016,08,20,17,12,924.45
2016,08,20,17,13,924.45
2016,08,20,17,14,924.45
2016,08,20,17,15,945.65
2016,08,20,17,16,945.65
2016,08,20,17,17,945.65
2016,08,20,17,18,945.65
2016,08,20,17,19,945.65
2016,08,20,17,20,945.65
2016,08,20,17,21,945.65
2016,08,20,17,22,945.65
2016,08,20,17,23,945.65
2016,08,20,17,24,945.65
2016,08,20,17,25,945.65
2016,08,20,17,26,945.65
2016,08,20,17,27,945.65
2016,08,20,17,28,945.65
2016,08,20,17,29,945.65
2016,08,20,17,30,945.65
2016,08,20,17,31,945.65
2016,08,20,17,32,945.65
2016,08,20,17,33,945.65
2016,08,20,17,34,945.65
2016,08,20,17,35,945.65
2016,08,20,17,36,945.65
2016,08,20,17,37,945.65
2016,08,20,17,38,945.65
2016,08,20,17,39,945.65
2016,08,20,17,40,945.65
2016,08,20,17,41,945.65
2016,08,20,17,42,945.65
2016,08,20,17,43,945.65
2016,08,20,17,44,945.65
2016,08,20,17,45,945.65
2016,08,20,17,46,945.65
2016,08,20,17,47,945.65
2016,08,20,17,48,945.65
2016,08,20,17,49,945.65
2016,08,20,17,50,945.65
2016,08,20,17,51,945.65
2016,08,20,17,52,945.65
2016,08,20,17,53,945.65
2016,08,20,17,54,945.65
2016,08,20,17,55,945.65
2016,08,20,17,56,945.65
2016,08,20,17,57,945.65